Location: Colle Santa Colomba
(42.0333°N, 12.5667°E)
Time: 22:02:05
(UTC+00:00)

Cosmos 2333 Rocket - Pass Details

Date: 25 October 2021
Orbit: 837 x 865 km, 70.8° (Epoch: 04 December)

Event Time Altitude Azimuth Distance (km) Brightness Sun altitude
Rises 18:06:56 0° 195° (SSW) 3,380 5.5 -21.8°
Reaches altitude 10° 18:09:22 10° 193° (SSW) 2,452 4.7 -22.2°
Maximum altitude 18:14:57 70° 111° (ESE) 898 2.1 -23.3°
Enters shadow 18:17:08 38° 39° (NE) 1,269 2.8 -23.7°
